TimeMST,TemperatureF,Dew PointF,Humidity,Sea Level PressureIn,VisibilityMPH,Wind Direction,Wind SpeedMPH,Gust SpeedMPH,PrecipitationIn,Events,Conditions,WindDirDegrees,DateUTC
12:53 AM,27.0,10.0,49,29.91,10.0,SSE,11.5,-,N/A,,Partly Cloudy,160,2013-02-04 07:53:00
1:53 AM,30.9,10.0,42,29.91,10.0,SSE,11.5,-,N/A,,Partly Cloudy,160,2013-02-04 08:53:00
3:53 AM,24.1,12.0,60,29.94,10.0,South,13.8,-,N/A,,Scattered Clouds,180,2013-02-04 10:53:00
4:53 AM,24.1,10.9,57,29.96,10.0,SSE,12.7,-,N/A,,Partly Cloudy,160,2013-02-04 11:53:00
5:53 AM,21.9,10.0,60,29.99,10.0,SSE,12.7,-,N/A,,Scattered Clouds,160,2013-02-04 12:53:00
6:53 AM,23.0,10.9,60,29.99,10.0,SSE,12.7,-,N/A,,Scattered Clouds,160,2013-02-04 13:53:00
7:53 AM,30.0,14.0,51,29.97,10.0,SSE,13.8,-,N/A,,Scattered Clouds,160,2013-02-04 14:53:00
8:53 AM,39.0,14.0,36,29.94,10.0,SSE,17.3,-,N/A,,Mostly Cloudy,160,2013-02-04 15:53:00
9:53 AM,45.0,9.0,23,29.90,10.0,South,10.4,-,N/A,,Mostly Cloudy,190,2013-02-04 16:53:00
10:53 AM,48.9,7.0,18,29.88,10.0,SW,9.2,-,N/A,,Mostly Cloudy,220,2013-02-04 17:53:00
11:53 AM,52.0,-0.0,12,29.86,10.0,WSW,5.8,-,N/A,,Mostly Cloudy,240,2013-02-04 18:53:00
12:53 PM,55.0,1.9,12,29.83,10.0,NW,11.5,-,N/A,,Mostly Cloudy,310,2013-02-04 19:53:00
1:53 PM,53.1,3.0,13,29.79,10.0,WNW,8.1,-,N/A,,Mostly Cloudy,300,2013-02-04 20:53:00
2:53 PM,55.9,-0.9,10,29.80,10.0,West,19.6,28.8,N/A,,Mostly Cloudy,280,2013-02-04 21:53:00
3:53 PM,52.0,-0.9,11,29.81,10.0,West,17.3,-,N/A,,Mostly Cloudy,280,2013-02-04 22:53:00
4:53 PM,48.0,3.0,16,29.84,10.0,West,11.5,-,N/A,,Mostly Cloudy,260,2013-02-04 23:53:00
5:53 PM,44.1,5.0,20,29.89,10.0,West,6.9,-,N/A,,Mostly Cloudy,280,2013-02-05 00:53:00
6:53 PM,42.1,7.0,24,29.91,10.0,West,8.1,-,N/A,,Mostly Cloudy,270,2013-02-05 01:53:00
7:53 PM,39.9,8.1,27,29.89,10.0,WSW,6.9,-,N/A,,Scattered Clouds,240,2013-02-05 02:53:00
8:53 PM,41.0,10.0,28,29.86,10.0,West,8.1,-,N/A,,Scattered Clouds,270,2013-02-05 03:53:00
9:53 PM,43.0,9.0,25,29.83,10.0,West,4.6,-,N/A,,Scattered Clouds,270,2013-02-05 04:53:00
10:53 PM,30.0,10.0,43,29.88,10.0,SSE,12.7,-,N/A,,Scattered Clouds,160,2013-02-05 05:53:00
11:53 PM,27.0,10.9,51,29.88,10.0,SSW,8.1,-,N/A,,Scattered Clouds,200,2013-02-05 06:53:00